User: anonymous   Login
Location: Goheenville
(40.9070°N, 79.3720°W)
Time: 14:27:37
(UTC-05:00)
Language:

NOAA 11 - Orbit

View from above orbital plane
View from above orbital plane
View from above satellite
View from above satellite

Ground track
Ground track

The orbit data is extracted from the following two-line orbital elements,

1 19531U 88089A   14355.31398767  .00000119  00000-0  83028-4 0   878
2 19531 098.6648 069.0330 0012264 121.9234 238.3134 14.15120975354203
Epoch (UTC): 21 December 2014 07:32:08
Eccentricity: 0.0012264
inclination: 98.6648°
perigee height: 833 km
apogee height: 851 km
right ascension of ascending node: 69.0330°
argument of perigee: 121.9234°
revolutions per day: 14.15120975
mean anomaly at epoch: 238.3134°
orbit number at epoch: 35420

The dashed part of the orbit path shows where the satellite is in the earth's shadow,  

DLR